This demonstration page uses our WeatherBlox Daily Observations layout. Learn more.

Left ArrowRight Arrow

39.92423, -83.80882

Hourly Observations for March 31, 2020

Temp ( °F °C ) Dew Point ( °F °C ) Humidity (%) Winds ( mph kmh ) Pressure ( in mb ) Visibility ( mi km ) Precip ( " mm )
12:56 am 00:56 Mostly Clear 40 4.4 35 1.7 83 83 NNW 7 11 30.09 1019 10 16.0934 0 0
1:56 am 01:56 Clear 40 4.4 36 2.2 86 86 NNW 7 11 30.07 1018 10 16.0934 0 0
2:56 am 02:56 Cloudy 40 4.4 35 1.7 83 83 NW 6 9 30.06 1018 10 16.0934 0 0
3:56 am 03:56 Partly Cloudy 38 3.3 36 2.2 93 93 N 6 9 30.04 1017 10 16.0934 0.03 0.762
4:56 am 04:56 Clear 37 2.8 35 1.7 93 93 N 6 9 30.04 1017 10 16.0934 0.13 3.302
5:54 am 05:54 Mostly Cloudy 36 2 36 2 100 100 NNW 5 7 30.06 1018 10 16.0934 0.61 15.494
5:56 am 05:56 Mostly Cloudy 36 2.2 35 1.7 97 97 NNW 5 7 30.04 1017 10 16.0934 0.66 16.764
6:56 am 06:56 Mostly Clear 36 2.2 35 1.7 97 97 Calm 30.04 1017 10 16.0934 0.71 18.034
7:13 am 07:13 Mostly Cloudy 36 2 34 1 93 93 Calm 30.06 1018 10 16.0934 0 0
7:56 am 07:56 Cloudy 37 2.8 35 1.7 93 93 NNE 6 9 30.03 1017 10 16.0934 1.37 34.798
8:56 am 08:56 Cloudy 38 3.3 35 1.7 89 89 NE 7 11 30.01 1016 10 16.0934 0.23 5.842
9:56 am 09:56 Mostly Cloudy 40 4.4 37 2.8 89 89 ENE 12 19 29.97 1015 10 16.0934 0 0
10:56 am 10:56 Cloudy 42 5.6 37 2.8 82 82 ENE 9 15 29.97 1015 10 16.0934 0 0
11:56 am 11:56 Cloudy 42 5.6 36 2.2 79 79 ESE 6 9 29.96 1015 10 16.0934 0 0
12:42 pm 12:42 Cloudy 45 7 36 2 71 71 E 8 13 29.92 1013 10 16.0934 0 0
12:56 pm 12:56 Cloudy 43 6.1 35 1.7 74 74 ENE 3 6 29.93 1013 10 16.0934 0 0
1:41 pm 13:41 Cloudy 43 6 36 2 76 76 E 7 11 29.92 1013 10 16.0934 0 0
1:56 pm 13:56 Cloudy 43 6.1 35 1.7 74 74 E 5 7 29.91 1013 10 16.0934 0 0
2:52 pm 14:52 Cloudy 43 6 36 2 76 76 NE 5 7 29.91 1013 10 16.0934 0 0
2:56 pm 14:56 Cloudy 43 6.1 35 1.7 74 74 NE 5 7 29.9 1013 10 16.0934 0 0
3:56 pm 15:56 Cloudy 44 6.7 35 1.7 71 71 NNE 7 11 29.89 1012 10 16.0934 0 0
4:12 pm 16:12 Cloudy 43 6 36 2 76 76 NE 9 15 29.89 1012 10 16.0934 0 0
4:28 pm 16:28 Cloudy with Light Rain 43 6 36 2 76 76 NE 9 15 29.89 1012 9 14.48406 0.001 0.001
4:39 pm 16:39 Cloudy with Light Rain 43 6 37 3 81 81 NNE 8 13 29.89 1012 10 16.0934 0.001 0.001
4:56 pm 16:56 Cloudy 42 5.6 36 2.2 79 79 N 9 15 29.88 1012 10 16.0934 0.001 0.001
5:05 pm 17:05 Cloudy with Light Rain 43 6 37 3 81 81 N 10 17 29.88 1012 10 16.0934 0.001 0.001
5:56 pm 17:56 Cloudy 43 6.1 35 1.7 74 74 NNE 7 11 29.88 1012 10 16.0934 0.001 0.001
6:53 pm 18:53 Cloudy 43 6 34 1 71 71 NNE 7 11 29.89 1012 10 16.0934 0 0
6:56 pm 18:56 Cloudy 43 6.1 34 1.1 71 71 NNE 6 9 29.88 1012 10 16.0934 0 0
7:22 pm 19:22 Cloudy 43 6 37 3 81 81 NNE 13 20 29.89 1012 10 16.0934 0 0
7:56 pm 19:56 Cloudy 42 5.6 37 2.8 82 82 N 8 13 29.9 1012 10 16.0934 0 0
8:16 pm 20:16 Cloudy 41 5 37 3 87 87 N 9 15 29.91 1013 10 16.0934 0 0
8:56 pm 20:56 Cloudy 41 5 38 3.3 89 89 N 12 19 29.91 1013 10 16.0934 0 0
9:05 pm 21:05 Cloudy 41 5 37 3 87 87 N 9 15 29.92 1013 10 16.0934 0 0
9:56 pm 21:56 Cloudy with Light Rain 40 4.4 40 4.4 100 100 NNW 8 13 29.92 1013 8 12.87472 0.001 0.001
10:24 pm 22:24 Cloudy with Light Rain 39 4 39 4 100 100 N 7 11 29.94 1014 10 16.0934 0.02 0.508
10:56 pm 22:56 Cloudy with Light Rain 40 4.4 40 4.4 100 100 N 7 11 29.91 1013 6 9.65604 0.03 0.762
11:05 pm 23:05 Cloudy with Light Rain 39 4 39 4 100 100 N 8 13 29.93 1013 6 9.65604 0.001 0.001
11:12 pm 23:12 Cloudy with Light Rain 39 4 39 4 100 100 N 8 13 29.93 1013 7 11.26538 0.01 0.254
11:19 pm 23:19 Cloudy with Light Rain 39 4 39 4 100 100 NNW 7 11 29.93 1013 6 9.65604 0.01 0.254
11:56 pm 23:56 Cloudy with Light Rain 40 4.4 40 4.4 100 100 N 8 13 29.91 1013 9 14.48406 0.01 0.254

Powered by AerisWeather